Regional Weather Roundup
Issued by NWS

Home | Current Version | Previous Version | Graphics & Text | Print | Product List | Glossary On
Versions: 1 2 3 4 5 6 7 8 9 10 11 12 13 14 15 16 17 18 19 20 21 22 23 24 25 26 27 28 29 30 31 32 33 34 35 36 37 38 39 40 41 42 43 44 45 46 47 48 49 50
000
ASUS45 KBOI 231610
RWRID

IDAHO REGIONAL WEATHER ROUNDUP
NATIONAL WEATHER SERVICE BOISE ID
1000 AM MDT MON OCT 23 2017

NOTE: "FAIR" INDICATES FEW OR NO CLOUDS BELOW 12000 FEET
WITH NO SIGNIFICANT WEATHER AND/OR OBSTRUCTIONS TO VISIBILITY

IDZ012-014-231700-
SOUTHWEST IDAHO


CITY           SKY/WX    TMP DP  RH WIND       PRES   REMARKS
BOISE          SUNNY     44  41  89 SE6       30.65R
CALDWELL       SUNNY     45  42  89 NE6       30.67R
MOUNTAIN HOME  SUNNY     46  46 100 NW8       30.64R
$$

IDZ016-017-231700-
SOUTHCENTRAL IDAHO


CITY           SKY/WX    TMP DP  RH WIND       PRES   REMARKS
BURLEY         MOSUNNY   49  44  83 W7        30.60R
JEROME         MOSUNNY   47  47 100 SW10      30.63R
TWIN FALLS     SUNNY     50  45  83 SW12      30.61R
$$

IDZ019>023-231700-
SOUTHEAST IDAHO


CITY           SKY/WX    TMP DP  RH WIND       PRES   REMARKS
IDAHO FALLS    CLOUDY    41  40  96 SW12      30.59R
POCATELLO      CLOUDY    46  40  79 SW16      30.60R
REXBURG        CLOUDY    39  39 100 SW8       30.59R FOG     WCI  33
$$

IDZ006-010-011-018-031-032-231700-
CENTRAL IDAHO MOUNTAINS


CITY           SKY/WX    TMP DP  RH WIND       PRES   REMARKS
MCCALL         FOG       30  30 100 S3        30.62R VSB 1/4
HAILEY         MOSUNNY   39  27  60 NW5       30.62R
STANLEY          N/A     34  29  82 CALM      30.65R
SALMON         SUNNY     38  32  79 CALM      30.64R
CHALLIS        SUNNY     39  29  67 CALM      30.62R
$$

IDZ002-004-006-007-026-231700-
NORTHERN IDAHO


CITY           SKY/WX    TMP DP  RH WIND       PRES   REMARKS
LEWISTON       SUNNY     45  39  79 CALM      30.66R
LOWELL           N/A     44  42  93 CALM      30.70R
COEUR D`ALENE  SUNNY     42  38  85 S10       30.64R
MULLAN PASS    CLOUDY    31  28  89 W5        30.58R WCI  26
$$



USA.gov is the U.S. government's official web portal to all federal, state and local government web resources and services.